Location: Arroyo Grande
(40.2671°N, 4.2512°W)
Time: 23:52:06
(UTC+00:00)

Cosmos 2278 Rocket - Pass Details

Date: 04 October 2023
Orbit: 842 x 844 km, 71.0° (Epoch: 03 December)

Event Time Altitude Azimuth Distance (km) Brightness Sun altitude
Rises 18:29:33 0° 341° (NNW) 3,410 5.6 -7.4°
Reaches altitude 10° 18:32:05 10° 346° (NNW) 2,471 4.8 -7.9°
Maximum altitude 18:37:35 51° 62° (ENE) 1,060 2.4 -9.0°
Drops below altitude 10° 18:43:04 10° 138° (SE) 2,455 4.2 -10.0°
Sets 18:45:34 0° 143° (SE) 3,386 5.0 -10.5°
